NAVACERRADA, MADRID

latitud = 40° 46' 50''N | longitud = 004° 00' 37''W
1894 metros sobre el nivel del mar | datos mensuales

Fecha, hora, temperatura, viento dirección y velocidad, humedad y presión.

  • 14-10-2018 19:00:00 | 2.10°C | Norte |13.00 km/h | 100.00% | 805.00 hPa
  • 14-10-2018 18:00:00 | 2.20°C | Norte |17.00 km/h | 100.00% | 804.40 hPa
  • 14-10-2018 17:00:00 | 2.30°C | Norte |15.00 km/h | 100.00% | 804.50 hPa
  • 14-10-2018 16:00:00 | 2.40°C | Norte |19.00 km/h | 100.00% | 804.80 hPa
  • 14-10-2018 15:00:00 | 2.40°C | Norte |14.00 km/h | 100.00% | 804.70 hPa
  • 14-10-2018 14:00:00 | 2.90°C | Norte |12.00 km/h | 100.00% | 804.80 hPa
  • 14-10-2018 13:00:00 | 2.80°C | Norte |14.00 km/h | 100.00% | 804.90 hPa
  • 14-10-2018 12:00:00 | 3.90°C | Norte |14.00 km/h | 100.00% | 804.70 hPa
  • 14-10-2018 11:00:00 | 5.10°C | Noroeste |9.00 km/h | 100.00% | 804.40 hPa
  • 14-10-2018 10:00:00 | 5.00°C | Norte |10.00 km/h | 100.00% | 803.90 hPa
  • 14-10-2018 09:00:00 | 6.60°C | Sur |15.00 km/h | 100.00% | 802.90 hPa
  • 14-10-2018 08:00:00 | 6.60°C | Sur |22.00 km/h | 100.00% | 803.40 hPa
  • 14-10-2018 07:00:00 | 6.10°C | Sudeste |18.00 km/h | 100.00% | 803.10 hPa
  • 14-10-2018 06:00:00 | 8.20°C | Sudoeste |22.00 km/h | 98.00% | 805.00 hPa
  • 14-10-2018 05:00:00 | 9.10°C | Sur |15.00 km/h | 93.00% | 805.50 hPa
  • 14-10-2018 04:00:00 | 9.70°C | Sudoeste |11.00 km/h | 88.00% | 806.50 hPa
  • 14-10-2018 03:00:00 | 10.10°C | Sur |21.00 km/h | 86.00% | 806.70 hPa
  • 14-10-2018 02:00:00 | 10.60°C | Sur |30.00 km/h | 83.00% | 807.30 hPa
  • 14-10-2018 01:00:00 | 10.80°C | Sudeste |39.00 km/h | 85.00% | 808.40 hPa
  • 14-10-2018 00:00:00 | 11.90°C | Sur |39.00 km/h | 84.00% | 809.50 hPa
  • 13-10-2018 23:00:00 | 12.00°C | Sudeste |37.00 km/h | 83.00% | 810.20 hPa
  • 13-10-2018 22:00:00 | 11.90°C | Sudeste |37.00 km/h | 84.00% | 810.50 hPa
  • 13-10-2018 21:00:00 | 11.40°C | Sudeste |28.00 km/h | 89.00% | 811.70 hPa
  • 13-10-2018 20:00:00 | 11.00°C | Sudeste |21.00 km/h | 87.00% | 812.00 hPa